Vorticity
3 5 4 6 4 5 -0 6 2 6 15 10 9 11 11 10 11 12 12 12 11 10 10 11 11 10 10 10 10 10 9 9 9 5 6 6 7 7 11 11 13 14 17
4 8 3 5 10 7 -0 5 -5 22 12 12 13 11 10 9 8 8 7 6 7 8 8 9 9 9 8 9 9 9 9 4 7 15 4 5 6 6 7 8 11 11 11
6 -1 4 3 0 2 3 -5 36 10 11 10 8 9 7 7 7 6 7 8 10 11 13 13 14 13 13 12 11 12 10 10 6 9 16 7 7 6 7 8 11 11 12
7 5 4 8 3 -0 1 26 9 9 9 8 8 7 5 5 7 8 10 12 12 12 12 12 12 12 13 13 12 11 13 12 11 11 16 15 11 8 6 13 13 13 13
11 -1 5 1 5 4 20 9 10 10 10 7 6 4 5 6 9 12 12 11 11 11 11 13 13 13 14 15 15 16 14 15 14 15 15 17 21 21 17 15 24 18 16
-1 4 9 -3 11 13 14 9 10 10 8 7 6 6 6 11 12 12 14 14 16 16 16 15 15 15 16 15 15 15 15 16 18 15 15 15 17 18 20 20 19 21 27
7 2 0 20 18 10 11 10 8 7 7 5 5 9 11 14 14 16 14 11 10 11 12 15 17 18 19 18 17 17 18 15 12 14 15 17 19 20 18 18 15 14 19
4 21 15 12 9 9 9 9 8 6 5 7 9 13 13 15 12 10 9 10 12 13 16 17 15 18 16 15 16 14 13 16 14 20 18 19 18 18 7 5 10 11 14
18 17 13 8 9 9 9 7 5 5 6 8 15 13 12 9 9 11 12 14 15 17 18 16 15 11 12 15 14 12 16 18 20 17 15 16 16 14 13 11 17 10 19
17 12 8 8 9 8 5 5 7 6 11 13 11 9 9 11 13 14 17 19 19 16 12 12 11 12 15 13 13 16 15 17 19 17 16 14 11 11 16 10 8 22 13
10 8 9 8 6 5 6 6 8 11 11 10 9 10 12 13 14 17 19 15 12 10 10 11 12 14 12 11 14 17 14 17 15 13 14 10 13 13 7 22 28 16 12
9 8 6 6 6 7 6 10 11 10 10 10 12 13 13 14 16 18 14 11 11 9 10 11 12 8 14 15 14 14 16 14 13 13 9 16 3 8 20 23 21 22 18
6 6 5 7 7 7 10 9 9 11 12 14 13 13 15 17 17 14 11 10 9 10 11 10 10 16 17 15 15 13 16 15 13 10 9 7 -0 17 22 22 19 21 19
6 6 8 7 8 10 8 9 12 13 12 12 14 14 16 16 12 10 10 9 10 11 12 7 15 14 16 14 15 16 14 12 12 11 7 4 18 22 25 22 20 17 20
7 8 6 8 10 8 9 12 12 12 14 16 16 15 15 11 10 9 9 10 12 11 9 14 15 17 17 15 14 13 13 12 9 5 8 19 21 27 25 22 17 21 30
7 7 9 10 9 9 11 10 12 14 14 15 14 12 11 10 9 9 11 12 12 12 12 16 17 15 15 11 12 11 12 10 3 11 23 22 28 23 24 21 23 27 12
8 10 9 9 9 10 10 11 14 12 11 15 16 13 11 8 10 12 13 12 13 14 15 19 16 15 11 11 10 12 11 2 15 25 24 28 25 25 24 29 20 18 16
11 9 9 9 10 9 12 15 11 11 13 14 11 9 9 11 10 12 12 12 15 18 18 17 15 13 10 11 11 12 3 15 26 25 28 26 27 29 27 21 15 23 21
8 8 9 10 10 13 16 11 12 13 11 10 11 12 12 12 12 12 12 14 16 18 19 18 14 11 10 9 12 5 11 29 27 25 25 24 27 26 29 22 8 4 6
8 11 11 10 13 15 11 12 12 11 11 11 11 12 13 13 12 11 13 16 16 18 18 16 13 10 10 10 8 2 34 28 23 25 23 29 20 6 1 3 5 7 7
11 11 10 12 15 12 11 11 11 11 12 11 11 12 14 12 12 13 15 16 16 16 19 14 11 10 9 11 -1 30 30 22 24 26 5 0 8 10 8 8 10 11 9
12 11 11 14 14 11 10 10 11 11 11 12 12 12 15 15 15 15 15 15 17 18 17 11 9 8 11 3 12 38 24 25 16 -1 13 10 8 9 9 8 10 13 14
12 11 12 15 12 11 10 10 12 12 11 11 13 16 16 15 15 14 14 16 18 21 13 11 8 11 8 -0 37 27 25 13 5 14 8 9 10 10 12 11 11 11 9
11 12 14 14 12 10 11 11 11 12 12 13 18 15 14 14 14 15 16 16 20 15 13 8 9 11 2 32 30 24 13 14 7 8 12 10 11 10 10 11 13 12 13
13 15 13 12 11 11 11 11 11 13 16 18 16 14 16 14 14 15 16 18 19 14 11 9 11 6 15 34 25 12 16 8 7 12 11 11 9 10 9 11 19 18 10
14 13 12 12 12 11 10 11 13 17 17 16 15 16 14 14 15 15 18 20 17 15 8 10 10 1 44 24 10 17 8 7 12 11 13 6 6 9 20 20 17 18 21
Height
3062 3058 3055 3051 3047 3042 3036 3031 3025 3019 3012 3007 3001 2995 2990 2984 2979 2972 2966 2959 2952 2946 2939 2932 2926 2919 2912 2907 2901 2895 2888 2880 2869 2872 2869 2868 2865 2861 2860 2858 2854 2854 2854
3056 3052 3048 3043 3038 3033 3028 3022 3016 3011 3005 2999 2993 2986 2980 2974 2968 2960 2953 2947 2940 2933 2926 2919 2912 2905 2898 2892 2886 2880 2872 2865 2856 2849 2853 2851 2848 2846 2841 2839 2837 2837 2837
3049 3044 3040 3035 3030 3025 3020 3014 3008 3002 2996 2991 2984 2977 2970 2964 2957 2950 2943 2936 2928 2920 2913 2907 2899 2892 2885 2878 2871 2864 2857 2850 2842 2835 2833 2834 2831 2828 2823 2822 2820 2818 2819
3042 3036 3032 3027 3022 3017 3012 3005 2999 2993 2987 2981 2975 2968 2961 2954 2946 2939 2931 2923 2915 2908 2900 2893 2886 2879 2871 2864 2856 2849 2842 2834 2827 2820 2814 2812 2812 2811 2804 2801 2798 2800 2800
3034 3029 3024 3020 3014 3008 3002 2997 2991 2985 2978 2972 2965 2959 2951 2943 2934 2925 2917 2908 2900 2892 2886 2878 2872 2865 2858 2850 2841 2835 2826 2818 2811 2805 2799 2795 2793 2791 2786 2783 2779 2779 2781
3027 3022 3017 3012 3006 2999 2994 2988 2983 2976 2970 2963 2956 2948 2940 2931 2922 2912 2902 2893 2886 2877 2870 2864 2857 2850 2842 2836 2829 2822 2815 2805 2799 2793 2786 2780 2777 2774 2771 2768 2765 2763 2759
3019 3014 3009 3003 2996 2990 2986 2980 2973 2967 2960 2953 2945 2936 2928 2918 2908 2898 2890 2881 2873 2865 2857 2848 2841 2834 2827 2819 2813 2807 2801 2796 2791 2781 2771 2767 2762 2762 2759 2755 2753 2750 2746
3011 3006 2999 2992 2988 2983 2977 2971 2965 2958 2950 2941 2932 2923 2914 2905 2895 2887 2878 2869 2860 2852 2844 2836 2828 2821 2815 2807 2799 2792 2786 2782 2778 2770 2762 2756 2754 2751 2750 2746 2741 2735 2734
3000 2995 2990 2985 2981 2974 2969 2963 2956 2946 2938 2930 2920 2911 2902 2896 2886 2876 2866 2857 2849 2842 2835 2828 2820 2811 2804 2798 2789 2780 2773 2769 2765 2758 2752 2748 2745 2742 2740 2733 2730 2725 2720
2992 2988 2983 2978 2973 2967 2960 2953 2944 2935 2927 2919 2911 2901 2892 2884 2876 2866 2856 2846 2838 2831 2825 2817 2810 2803 2796 2789 2780 2771 2762 2757 2751 2746 2743 2739 2735 2732 2728 2724 2719 2712 2710
2985 2981 2976 2971 2965 2958 2951 2942 2934 2926 2917 2909 2901 2893 2884 2873 2864 2856 2847 2838 2830 2820 2814 2807 2801 2794 2786 2779 2772 2764 2755 2748 2742 2736 2731 2728 2725 2720 2715 2710 2706 2702 2699
2980 2975 2970 2964 2957 2949 2941 2933 2925 2916 2907 2899 2890 2881 2871 2863 2854 2845 2838 2831 2824 2815 2807 2800 2792 2785 2779 2772 2764 2757 2749 2742 2735 2729 2723 2719 2713 2708 2702 2697 2694 2691 2689
2974 2968 2962 2955 2947 2939 2932 2924 2915 2906 2897 2887 2877 2867 2860 2852 2844 2838 2831 2824 2817 2808 2801 2792 2785 2778 2771 2764 2758 2750 2742 2735 2728 2722 2715 2710 2704 2697 2691 2687 2684 2681 2680
2965 2958 2952 2945 2938 2930 2922 2915 2905 2896 2885 2875 2866 2857 2850 2843 2835 2828 2821 2814 2807 2799 2790 2782 2778 2771 2765 2757 2750 2744 2737 2729 2722 2714 2707 2701 2693 2686 2681 2677 2674 2673 2671
2954 2948 2942 2936 2929 2921 2913 2904 2896 2887 2876 2866 2858 2849 2841 2835 2828 2821 2814 2806 2799 2791 2781 2776 2769 2763 2756 2750 2744 2737 2730 2723 2715 2708 2700 2690 2683 2677 2673 2670 2668 2667 2666
2945 2939 2932 2925 2918 2911 2902 2894 2887 2879 2871 2864 2855 2845 2837 2830 2823 2816 2809 2801 2793 2784 2776 2769 2763 2756 2750 2743 2736 2730 2724 2717 2709 2700 2690 2682 2675 2670 2667 2666 2665 2665 2664
2936 2930 2923 2916 2908 2899 2891 2883 2875 2871 2864 2858 2850 2840 2832 2824 2817 2809 2802 2794 2786 2778 2771 2764 2757 2751 2745 2739 2732 2725 2717 2711 2702 2692 2684 2677 2670 2667 2665 2665 2665 2665 2666
2928 2922 2914 2906 2898 2891 2883 2875 2866 2858 2851 2847 2843 2834 2825 2817 2810 2803 2795 2787 2778 2773 2766 2758 2753 2747 2742 2735 2729 2721 2714 2705 2696 2688 2681 2675 2670 2668 2668 2668 2668 2669 2670
2919 2911 2904 2897 2890 2882 2874 2868 2860 2853 2845 2838 2831 2826 2818 2811 2803 2796 2788 2780 2772 2766 2760 2755 2749 2744 2739 2732 2726 2719 2710 2701 2694 2688 2683 2678 2676 2675 2674 2674 2674 2675 2677
2910 2903 2896 2889 2882 2873 2866 2860 2853 2845 2838 2830 2823 2816 2809 2801 2794 2788 2782 2775 2768 2762 2756 2751 2746 2742 2736 2730 2723 2716 2707 2700 2695 2691 2687 2686 2685 2682 2681 2681 2682 2682 2682
2901 2894 2887 2880 2873 2866 2859 2852 2845 2838 2830 2823 2817 2811 2804 2795 2788 2782 2776 2770 2764 2758 2753 2748 2744 2739 2733 2727 2721 2713 2707 2703 2699 2696 2694 2692 2690 2689 2688 2687 2687 2686 2686
2892 2885 2878 2871 2864 2857 2851 2844 2837 2831 2823 2816 2809 2803 2797 2790 2784 2777 2772 2767 2762 2756 2750 2746 2742 2737 2731 2725 2719 2713 2709 2706 2705 2702 2700 2698 2696 2694 2693 2692 2691 2691 2689
2884 2876 2869 2863 2856 2849 2843 2837 2830 2823 2815 2808 2802 2795 2789 2783 2778 2773 2768 2763 2758 2753 2749 2745 2741 2737 2732 2726 2719 2716 2714 2712 2710 2707 2706 2704 2701 2699 2697 2696 2694 2693 2692
2874 2867 2860 2854 2847 2841 2835 2829 2822 2815 2809 2802 2796 2790 2784 2779 2774 2769 2765 2760 2756 2752 2748 2744 2740 2735 2731 2726 2722 2720 2719 2718 2715 2713 2711 2709 2706 2704 2702 2700 2698 2697 2695
2864 2857 2851 2845 2839 2833 2827 2820 2814 2808 2801 2795 2790 2785 2780 2775 2770 2766 2762 2758 2754 2750 2747 2743 2740 2736 2732 2728 2727 2726 2725 2722 2721 2719 2717 2714 2712 2709 2707 2704 2701 2700 2698
2855 2848 2842 2836 2830 2824 2818 2812 2807 2801 2795 2790 2785 2781 2775 2771 2767 2763 2760 2755 2752 2750 2746 2744 2740 2738 2734 2733 2732 2731 2730 2727 2726 2724 2722 2720 2718 2715 2712 2708 2706 2703 2701